SPACEMOBILE-SSR02 DEB, 62370

Orbit data source: Space-Track

SPACEMOBILE-SSR02 DEB, 62370 is space debris in LEO originally from a launch on Thu, 12 Sep 2024 UTC launched from the Air Force Eastern Test Range (AFETR). Debris objects in space refer to the collection of defunct objects orbiting the Earth. Examples of debris include non-operational satellites, rocket bodies, and fragments generated from explosions, collisions, or faulty payload assembly.

Loading next visibility...
Identifier
62370, 2024-163G
Orbit
LEO
Country
Flag of USUS
Related business
Manufacturer
AST & Science
Mission
Spacecraft
Bus & Motor
BW3 LVA, Unknown motor
Mass
150 kg wet, 150 kg dry
Launch date (UTC)
2024-09-12 (1 year ago)
Launch vehicle
Unknown
Launch site
Air Force Eastern Test Range (AFETR)
Object type
Payload
Rocket body
Debris
Shape & HBR
Cyl, 3.8 m
Radar Cross Section
1.963 m², Large (>1 m²)

Expand to show TLE details & history
Last TLE update: 11 hours ago

TLE from 11 hours ago
0 SPACEMOBILE-SSR02 DEB
1 62370U 24163G   25340.59031722  .00032599  00000-0  98193-3 0  9998
2 62370  52.9460  95.7517 0007765 293.6963  66.3221 15.34041401 68718
Epoch: 2025-12-06T14:10Z
TLE epoch observation values (Epoch: 2025-12-06T14:10:03.407Z)
Latitude
-0.00008°
Longitude
167.62157°
Altitude
462.517 km
Speed
7.638 km/s
True Right ascension
06h 23m 00s
True Declination
0° 00' 00"
Sunlit
Object was in full shadow at epoch
Visualization orbit readout
Latitude
Unknown
Longitude
Unknown
Altitude
Unknown
Speed
Unknown
Apparent Right ascension
Unknown
Apparent Declination
Unknown
Sunlit
N/A
Visualization observer readout
Local Sidereal Time
23:29:59
Azimuth
Unknown
Elevation
Unknown
Doppler factor
Unknown
Orbital elements
Apogee altitude
469.374 km
Perigee altitude
458.748 km
Semi-major axis
6,842.198 km
Eccentricity
0.00078
Inclination
52.946°
RAAN
95.7517°
Arg. of periapsis
293.6963°
True anomaly
66.40362°
Mean anomaly
66.3221°
Eccentric anomaly
66.36286°
Mean motion
3.83486 °/min
Orbital period
93.88 mins
BSTAR
0.00098193
Loading maneuver chart data...
Computing Atmospheric mass density...
Loading historical data...
Loading historical data...
Loading historical data...
Loading historical data...
Loading historical data...
Loading historical data...
Loading historical data...

Documentation

Showing up to 5 results
|